カタログに戻る

CZ-4 DEB

運用中SSO
NORAD 37615·DEBRIS·🇨🇳 China

打ち上げ Sep 3, 1990 から Taiyuan Satellite Launch Center

Loading…

次のパス (今後24時間)

TLE

最新Source: Space-Track

元期: Sep 14, 2026, 06:10 UTC

1 37615U 90081DB  26257.25728798  .00000720  00000-0  26751-3 0  9993
2 37615  98.5503 255.8728 0014850 358.6569   1.4574 14.35108268637488

AllMySatでCZ-4 DEBをリアルタイム追跡

Download on the App Store